Voltar ao catálogo

COSMOS 763

AtivoMilitarLEO
NORAD 8287·PAYLOAD·🇷🇺 Russia

Lançado Sep 17, 1975 de Plesetsk Cosmodrome

Loading…

Próximas Passagens (próximas 24 horas)

TLE

AtualizadoSource: Space-Track

Época: Sep 14, 2026, 13:46 UTC

1 08287U 75086C   26257.57403162 -.00000009  00000-0  50303-4 0  9996
2 08287  74.0069 112.2218 0023111 326.2015  61.6661 12.43564790314877

Acompanhe COSMOS 763 em tempo real com AllMySat

Download on the App Store